Theta_e
349 348 343 333 330 332 329 331 329 318 311 315 320 324 329 331 332 332 333 334 336 338 340 341 341 342 342 342 343 343 343 343 344 344 344 344 344 344 343 343 343 343 343 343 342 341 342 341 340 340 340 340 339 338 338 338 337 336 334 334 333 334 336 336 336 336 336 336 334 332 331 330 327 324 323 324 327 329 332 335 336 336 337 337 337
350 348 342 333 330 330 328 331 330 319 311 316 320 326 334 335 336 335 335 337 339 340 340 341 342 342 342 342 343 343 343 343 343 344 344 344 344 343 342 343 342 342 342 342 342 342 340 340 340 340 339 338 338 338 337 336 334 332 330 328 328 329 332 334 335 335 335 335 334 333 333 333 332 330 327 323 322 324 326 329 333 335 335 335 335
349 348 342 333 331 330 329 332 330 319 312 318 322 330 336 338 337 337 338 339 340 341 341 341 342 342 342 343 343 343 343 343 343 343 343 343 343 342 342 342 342 342 341 341 340 339 337 338 339 339 338 339 338 338 337 334 332 331 329 325 323 325 328 332 334 334 335 335 333 332 334 334 334 333 331 328 324 323 325 326 329 333 334 334 334
349 348 341 333 332 330 330 333 330 319 314 320 326 332 336 338 338 337 339 339 340 341 341 342 342 342 342 343 343 343 343 343 343 343 343 343 342 342 343 342 342 341 341 340 339 336 336 338 339 339 339 339 338 338 337 334 333 333 332 327 324 324 325 329 333 334 334 333 332 332 332 332 332 332 331 331 329 327 329 328 327 329 330 332 332
349 348 342 336 334 331 330 333 330 320 315 322 328 334 335 336 337 337 339 339 340 341 342 342 342 343 342 343 343 343 342 343 343 343 343 343 343 342 343 342 341 340 341 340 339 338 338 339 339 339 339 339 338 338 337 335 335 335 334 331 329 327 325 325 329 333 334 333 332 333 331 331 331 331 331 331 330 330 330 330 329 330 329 328 329
349 346 342 339 339 335 331 333 331 320 315 322 330 334 334 332 333 335 337 338 339 340 341 342 342 343 342 343 343 343 343 343 343 343 343 343 342 341 342 341 340 339 339 339 339 338 339 339 339 338 339 339 339 338 337 336 336 335 334 333 332 331 329 327 326 327 331 333 334 333 332 332 331 332 333 331 331 330 329 329 330 331 330 329 329
348 345 342 340 342 337 332 333 332 322 314 320 330 335 334 332 331 333 336 337 339 340 341 342 342 342 343 343 342 343 343 343 343 343 342 341 340 339 339 337 337 338 339 339 338 339 339 339 339 338 339 339 339 338 337 336 335 334 332 331 331 331 331 330 328 324 326 332 334 333 332 332 332 331 332 332 332 331 329 329 329 330 330 330 330
347 344 340 340 342 337 332 334 332 326 316 316 328 337 337 336 336 336 338 339 340 341 342 342 343 343 343 343 343 343 343 343 342 342 340 339 338 336 334 332 330 333 337 339 338 338 338 338 339 339 339 339 338 337 335 334 333 331 329 329 329 330 331 331 330 325 325 331 331 332 332 332 332 331 332 333 332 331 331 330 330 330 329 330 330
346 343 340 339 342 337 332 334 333 329 320 313 322 336 339 337 339 338 339 340 341 342 342 343 343 343 343 343 343 342 342 342 341 340 340 337 336 333 330 328 325 324 329 335 337 337 337 337 339 340 340 338 335 334 332 331 329 328 330 331 330 329 330 331 330 327 329 331 329 329 331 331 331 331 331 332 332 332 332 331 331 331 330 330 331
346 344 339 337 342 337 333 335 334 331 325 315 315 333 339 337 338 339 339 340 341 342 343 343 343 343 343 343 342 342 342 342 341 340 338 335 332 330 328 328 326 324 324 328 334 337 336 337 338 339 338 336 334 333 331 329 327 328 331 331 331 330 330 331 330 330 331 331 330 330 331 331 331 331 330 331 331 332 332 333 333 333 333 332 332
345 345 339 338 342 337 333 335 334 333 328 319 313 329 339 338 339 339 340 340 341 342 343 343 343 343 342 342 342 341 342 341 340 338 335 333 331 330 330 330 330 328 327 328 331 334 335 336 338 338 336 336 335 332 330 327 326 330 330 330 331 331 331 330 330 331 332 331 332 332 331 332 332 332 331 330 330 331 332 333 333 334 334 333 333
345 345 340 340 343 337 333 335 334 334 329 321 315 327 338 338 339 340 340 341 341 342 343 343 342 342 342 341 341 341 340 339 338 336 335 333 332 331 331 332 332 331 331 332 331 331 331 333 335 335 335 335 334 332 329 325 329 331 329 331 331 330 330 328 330 331 331 331 332 332 332 332 332 332 332 331 330 330 330 331 332 333 333 333 332
345 344 341 342 344 339 334 335 335 335 330 322 315 324 336 338 339 340 340 340 340 342 342 342 342 342 342 342 341 340 339 338 338 337 336 335 332 330 329 329 331 330 331 332 331 328 325 327 328 331 334 334 333 331 326 326 331 332 329 331 330 329 327 325 329 331 330 331 331 332 332 332 332 332 332 332 332 331 330 329 329 330 331 331 330
345 344 343 343 344 340 335 334 335 334 330 323 316 321 334 337 338 340 340 339 341 342 342 342 342 342 342 341 340 340 339 338 338 338 336 333 330 328 328 329 329 329 328 328 329 326 321 320 322 325 330 332 331 328 324 328 332 332 331 331 330 329 325 324 328 330 331 332 332 332 332 332 331 331 333 334 334 333 332 331 330 329 328 329 327
345 344 343 343 343 342 337 334 334 333 330 325 318 322 333 338 338 339 339 339 341 341 341 342 342 342 341 340 340 339 339 338 338 337 335 331 330 331 331 331 330 328 326 324 326 325 321 318 319 321 325 327 327 324 326 331 333 332 331 331 331 329 326 326 328 330 332 332 332 333 333 333 330 330 332 334 334 334 334 333 332 331 329 328 326
345 343 343 344 343 342 340 337 334 332 330 325 323 328 334 337 338 338 338 339 341 341 341 341 341 341 340 340 340 339 339 338 338 337 335 332 331 331 332 332 331 328 323 319 320 320 318 317 318 319 321 323 322 324 329 332 332 333 332 331 331 329 327 327 329 331 333 333 333 334 334 333 332 333 333 333 333 333 333 333 332 332 330 328 326
345 344 343 343 343 343 342 341 337 334 331 327 329 333 334 335 336 336 338 339 340 340 340 340 340 340 340 340 340 340 339 338 338 337 336 333 330 329 330 331 331 330 324 319 319 319 316 317 317 318 320 320 322 327 331 332 333 333 332 332 331 330 328 327 328 331 333 333 333 334 335 334 333 334 334 334 333 332 332 332 332 332 330 328 326
344 344 343 343 343 343 343 342 340 338 336 333 334 334 332 332 334 335 336 338 339 339 339 340 340 340 340 340 340 339 339 338 338 337 336 334 331 328 328 330 330 331 327 322 320 319 317 317 318 319 320 321 325 330 332 332 333 333 333 332 331 330 329 328 329 331 332 333 333 334 334 333 333 334 334 334 333 333 332 330 330 330 330 329 327
343 344 344 343 343 343 343 342 340 340 338 337 337 335 333 331 332 333 335 336 337 338 340 341 340 341 340 340 339 339 338 337 337 337 335 334 333 330 327 328 329 329 328 323 319 317 317 318 319 319 322 325 329 331 332 333 334 333 333 332 332 331 330 330 331 331 331 332 333 334 332 330 331 333 333 333 333 332 331 330 330 330 329 328 328
343 343 344 343 343 343 343 342 341 340 339 339 338 337 335 333 333 334 334 336 337 338 340 340 340 340 339 339 338 338 338 337 337 337 335 334 333 332 329 328 329 329 328 324 318 317 318 319 320 321 324 328 330 331 332 333 333 333 332 332 331 331 331 331 331 330 332 331 332 334 331 328 330 331 332 332 331 331 331 329 329 329 328 328 328
343 343 343 343 343 343 342 342 341 340 339 339 339 338 336 334 334 333 334 336 336 336 338 339 338 338 338 338 338 338 339 338 337 337 335 334 334 333 331 329 328 329 330 328 323 318 317 319 320 322 326 328 330 331 332 333 333 333 332 332 331 331 332 331 330 331 331 331 332 333 328 328 331 331 332 331 330 331 329 327 328 328 328 327 327
343 343 343 343 342 342 342 341 340 340 339 339 339 338 336 335 333 333 335 336 336 336 337 337 337 337 336 336 337 338 338 338 337 335 334 335 335 333 333 331 329 329 329 330 328 323 319 319 320 322 326 327 329 331 333 334 334 333 332 332 331 332 332 331 331 331 331 331 333 331 327 329 331 331 331 330 330 330 328 327 328 328 327 327 326
343 343 343 342 342 342 341 341 340 340 339 339 338 338 336 334 333 334 334 336 336 337 337 337 337 337 336 336 337 336 335 336 335 335 334 334 335 333 334 334 332 330 328 330 330 328 323 320 320 322 325 326 327 331 333 334 334 334 333 332 332 332 332 332 331 332 331 330 332 330 327 329 331 331 330 329 329 329 328 327 328 327 326 327 326
343 343 343 343 341 341 341 340 340 339 339 339 337 337 335 334 334 333 333 335 337 337 337 336 336 337 337 336 335 334 333 334 335 335 335 333 332 331 332 334 334 331 327 329 330 330 328 323 321 321 323 325 326 330 333 333 333 333 333 333 333 333 333 332 332 333 332 330 330 329 328 329 330 331 330 329 329 327 327 327 328 327 326 326 325
342 342 342 342 341 340 340 339 340 339 339 338 337 336 334 333 334 333 332 334 336 337 336 336 336 335 336 335 334 334 334 334 334 334 334 333 333 331 329 330 333 332 329 328 329 330 330 328 325 322 322 323 325 329 332 333 333 333 333 334 334 333 333 333 332 333 332 331 330 329 328 328 328 328 329 330 329 327 327 328 328 326 325 324 324
342 342 341 341 340 340 340 339 339 339 339 338 335 335 334 333 334 334 334 334 335 336 335 336 336 335 335 335 333 334 334 335 333 333 335 336 336 335 333 330 331 331 328 327 328 329 330 330 329 326 324 323 323 327 331 333 332 332 334 335 335 334 334 334 333 333 333 332 330 329 327 327 327 326 329 330 329 328 328 329 327 326 324 323 324
341 341 341 340 340 339 339 339 339 338 338 337 334 334 334 334 334 334 334 334 335 335 335 335 335 334 334 334 333 334 334 334 335 336 337 338 339 339 338 336 334 333 330 329 328 327 328 329 330 329 327 325 324 325 329 332 332 332 332 334 335 334 334 334 334 333 333 332 331 330 328 327 326 326 329 330 329 329 329 329 327 327 324 322 324
341 340 341 341 340 338 338 339 338 338 337 335 334 333 334 334 334 334 334 334 334 335 335 334 334 334 334 333 333 333 334 335 337 338 338 339 339 339 339 339 338 337 336 335 332 330 328 327 328 330 329 328 327 327 329 331 331 332 331 331 332 333 333 333 334 334 333 333 332 331 328 326 325 326 330 330 330 329 328 328 327 327 325 323 324
341 340 340 341 340 338 338 338 338 337 336 335 334 334 334 334 334 334 334 334 334 335 334 334 335 334 334 334 334 334 336 338 339 338 339 339 339 339 339 339 338 338 338 338 337 336 333 329 327 327 329 329 329 329 331 331 330 331 331 330 331 332 332 333 334 334 333 333 333 332 329 327 325 327 330 330 330 329 328 328 328 328 327 325 324
340 340 339 340 340 338 337 337 337 336 335 334 334 334 334 334 334 335 335 334 335 335 334 335 334 334 334 334 335 336 337 338 337 337 338 338 338 338 338 339 338 338 339 339 338 338 337 335 331 328 328 329 330 330 331 333 332 332 332 332 332 333 333 333 334 334 333 333 333 332 330 327 325 326 329 329 330 329 328 329 329 328 328 327 326
340 340 338 340 339 337 336 337 336 335 334 334 333 333 334 334 334 335 335 334 334 335 335 335 335 334 334 332 333 335 336 335 335 337 338 338 339 339 339 339 338 338 339 339 339 338 337 338 336 334 331 329 329 329 330 333 333 333 333 333 333 333 333 333 334 334 333 333 332 332 331 328 326 326 328 329 329 329 329 329 329 329 328 328 326
340 339 338 339 338 336 336 336 336 335 334 334 333 333 333 332 334 335 335 334 334 335 335 335 335 335 333 330 331 333 335 336 338 339 339 339 339 339 339 339 339 338 338 338 338 338 337 337 337 337 335 333 330 328 329 331 333 333 333 333 333 332 333 334 334 334 333 332 332 332 331 329 326 326 328 328 328 328 329 330 330 329 328 327 326
340 339 339 338 338 336 336 337 336 335 334 334 333 334 332 331 334 335 335 336 335 335 334 334 335 334 333 331 333 334 336 338 339 339 339 339 339 339 339 339 338 338 337 337 337 337 337 337 337 336 336 336 334 331 329 330 333 333 332 332 332 332 332 333 334 334 334 333 332 332 332 329 328 327 328 328 328 327 329 330 329 329 328 327 326
339 339 339 338 337 336 336 337 336 335 334 334 334 334 333 333 334 335 335 336 336 336 336 335 335 335 335 334 335 335 336 338 339 339 339 339 339 338 338 338 338 337 337 337 337 337 337 337 337 336 336 336 336 335 333 333 333 332 331 330 331 332 332 333 333 334 334 333 332 332 331 330 328 329 329 328 327 327 328 329 329 329 328 327 326
338 338 338 337 337 336 337 336 335 335 335 335 336 336 335 334 336 336 337 337 337 338 338 337 337 337 337 337 336 337 337 337 338 338 338 338 338 338 337 337 337 337 337 337 337 337 337 337 336 336 336 336 336 335 335 335 333 332 331 329 330 332 332 332 333 333 334 332 332 331 331 331 329 328 330 330 329 327 327 328 328 329 328 327 325
338 338 337 337 336 336 337 336 335 336 336 337 338 337 336 336 336 337 338 338 338 339 339 338 338 338 338 338 338 337 338 337 337 337 337 337 338 337 337 337 337 336 336 337 337 337 336 336 336 336 335 336 336 336 335 335 335 333 331 329 330 332 332 332 332 333 333 332 332 331 331 330 329 328 329 330 330 330 328 328 328 328 327 326 325
338 338 338 337 336 337 337 336 336 336 337 338 338 337 336 336 337 337 338 338 338 339 339 339 339 338 338 338 338 337 338 338 338 338 338 338 338 337 337 337 336 336 336 336 336 336 335 335 335 335 335 335 336 335 335 335 335 335 333 331 330 331 332 332 332 332 332 331 331 331 331 330 329 328 329 329 329 330 329 328 328 328 327 326 325
338 338 338 336 337 338 337 336 336 336 338 339 339 338 337 337 338 338 338 338 337 338 338 339 338 338 337 338 338 338 338 338 339 339 338 338 338 337 336 336 336 336 336 336 335 334 334 334 334 335 335 334 335 335 334 334 334 334 335 333 331 331 332 331 331 331 331 332 332 332 331 331 330 328 329 329 328 329 330 329 328 327 327 327 326
338 338 338 337 337 338 336 336 336 337 339 339 339 338 338 338 338 338 338 337 338 338 338 338 338 338 338 338 339 338 339 339 339 339 339 339 337 337 338 336 335 335 335 334 335 334 333 333 334 335 334 333 334 334 334 334 333 333 334 333 333 332 332 331 331 331 331 332 332 332 332 332 331 329 328 329 329 328 328 329 329 328 328 327 327
338 338 338 337 337 337 337 337 338 339 339 339 338 338 338 338 338 338 338 338 338 338 338 338 338 338 338 338 338 338 339 339 339 339 339 339 337 337 336 334 334 334 335 334 334 334 333 333 333 333 333 333 333 334 333 333 332 332 332 332 332 333 333 332 332 332 331 331 332 332 332 332 332 331 329 328 329 329 327 327 328 329 329 328 327
338 338 337 337 337 337 338 338 339 339 338 338 338 338 338 338 338 339 339 339 339 339 339 339 339 339 339 339 339 339 339 339 339 339 339 338 337 336 336 335 334 333 335 335 333 333 333 332 333 333 333 333 333 333 332 332 332 332 332 332 331 331 332 332 332 332 332 332 332 331 331 331 331 331 330 329 329 330 329 327 328 329 329 328 327
338 337 337 337 337 337 338 338 338 338 338 338 338 339 339 339 339 339 339 339 339 340 339 340 340 339 339 339 339 339 339 338 338 338 338 337 337 336 337 337 335 333 333 334 334 333 333 332 333 334 334 333 333 333 332 331 331 331 331 331 331 331 332 331 331 332 332 332 332 331 330 330 331 331 331 330 329 330 330 328 327 328 329 328 327
337 337 337 337 336 336 337 337 338 338 338 338 339 339 339 339 339 339 339 339 339 339 339 339 339 338 338 338 339 338 337 338 338 338 338 337 337 337 337 336 335 334 333 333 334 334 333 333 332 332 333 333 333 333 331 330 331 331 331 331 330 330 331 332 332 332 332 332 332 332 331 331 331 330 331 331 330 330 331 330 328 328 329 328 327
336 336 336 336 336 336 336 337 337 338 338 339 339 339 338 339 338 338 338 338 338 338 337 337 337 337 337 337 337 337 337 337 338 338 337 337 336 336 337 336 336 336 335 334 333 333 333 333 332 332 333 333 333 333 332 331 330 331 331 331 331 331 331 332 333 333 332 332 332 332 332 331 331 331 330 330 330 330 330 330 328 327 328 328 328
336 336 336 336 335 335 336 337 337 338 338 338 338 337 337 338 337 337 337 336 336 337 337 337 336 336 337 337 336 337 337 337 338 338 337 337 336 336 336 335 334 335 334 333 333 333 333 333 333 333 333 333 333 333 332 332 331 331 331 331 331 332 331 331 332 332 332 332 332 332 332 332 332 331 331 330 330 330 331 331 329 327 327 328 328
336 336 336 336 335 335 336 337 338 338 338 338 337 337 337 337 337 337 336 337 337 337 337 337 336 336 336 336 337 337 337 337 337 337 337 336 336 336 335 334 334 333 333 333 333 334 333 333 333 333 333 333 333 333 333 333 332 332 332 332 332 331 331 331 331 332 332 332 332 332 332 332 332 332 331 331 330 330 331 330 330 329 326 326 327
336 336 336 336 336 336 337 338 338 338 338 337 337 338 337 336 336 335 335 336 337 336 337 336 336 335 335 336 336 336 336 336 336 336 335 334 334 335 334 334 334 333 333 333 333 334 333 333 333 333 333 332 332 333 333 334 333 332 332 332 332 332 332 332 331 331 332 333 332 332 332 332 332 332 331 331 331 330 331 330 330 330 327 325 326
335 336 336 337 337 337 337 338 338 338 337 337 337 337 336 335 335 335 336 336 336 336 335 335 334 334 334 334 334 334 334 333 334 334 333 333 332 332 332 332 332 332 333 333 333 333 333 333 332 333 332 332 332 333 333 334 333 333 333 332 332 332 332 333 331 331 332 332 332 332 332 332 332 332 332 331 331 330 330 330 330 330 329 326 325
336 336 337 337 337 337 337 337 337 337 337 336 336 335 335 335 335 335 335 334 334 333 332 332 332 332 332 331 331 331 330 330 330 330 330 330 330 330 330 330 330 331 332 333 333 333 333 332 332 332 332 332 333 333 333 333 333 333 333 333 333 332 332 333 332 331 331 331 331 331 332 333 332 332 332 331 331 330 330 330 329 330 330 328 326
336 336 336 336 336 336 336 336 336 336 336 335 335 334 334 334 334 334 333 331 331 330 330 330 329 329 329 329 328 328 328 328 328 328 328 328 328 328 328 329 329 330 332 333 333 333 333 332 332 331 331 331 332 332 332 332 332 332 332 332 333 332 332 333 332 332 331 331 331 330 332 333 333 332 332 331 331 331 331 330 330 329 330 331 329
335 335 335 335 335 335 335 334 334 334 333 333 333 332 332 332 331 331 330 329 329 329 329 328 327 328 328 328 327 326 326 326 326 326 327 327 327 327 327 328 328 329 331 332 332 332 332 332 331 331 330 330 331 331 331 331 331 331 331 332 332 332 333 332 332 332 331 331 331 330 331 332 332 333 333 332 332 332 332 331 330 330 330 331 330
Wind_Speed
23 21 24 25 22 20 18 16 13 14 18 22 22 21 21 22 23 23 23 22 21 20 20 21 22 22 22 23 23 22 21 21 20 19 19 19 19 19 20 19 19 19 19 19 19 19 19 18 18 17 17 17 17 18 18 19 19 19 19 18 17 16 15 15 15 15 14 14 14 14 14 12 11 11 10 10 9 10 9 11 13 12 11 11 12
24 22 25 26 23 21 19 16 13 14 16 21 22 20 19 19 19 20 20 20 20 20 21 22 22 22 22 22 22 21 21 21 20 20 19 18 18 19 19 19 19 19 19 19 19 19 18 18 17 17 17 17 17 18 18 18 18 18 18 17 16 15 14 14 15 15 15 15 15 16 15 14 13 11 10 9 9 9 9 10 12 11 9 10 11
23 21 25 27 23 21 19 16 14 14 16 20 21 19 18 18 19 19 19 19 20 20 22 22 22 21 21 21 21 21 21 20 20 19 18 18 17 17 18 18 18 18 19 19 19 19 18 17 17 17 16 17 17 17 17 18 18 17 17 17 16 15 14 14 14 14 14 14 15 16 15 14 14 12 11 10 9 9 9 9 11 12 10 10 11
23 20 23 27 24 22 20 16 14 14 16 19 20 19 18 18 18 19 19 19 20 21 22 21 21 21 20 20 20 20 20 20 19 19 18 17 17 17 17 17 17 17 18 18 18 19 18 17 17 17 16 16 17 17 16 17 17 16 16 17 17 17 15 13 13 13 13 12 13 15 13 12 13 13 12 12 11 10 10 10 10 11 11 10 10
22 20 23 25 22 22 20 16 14 14 16 19 19 18 18 19 19 19 19 19 19 20 21 20 20 20 19 19 19 19 19 19 18 18 18 17 16 17 16 15 16 16 17 17 17 18 18 17 16 16 16 16 16 16 15 16 15 14 14 15 15 16 15 13 11 11 11 10 13 14 12 11 12 13 12 12 12 11 11 11 11 11 10 10 10
22 21 22 22 20 21 20 17 15 14 16 18 19 18 18 19 20 20 19 19 19 19 19 19 19 18 18 18 18 18 18 18 17 17 17 16 16 16 16 15 15 15 15 16 16 16 17 16 16 15 14 15 15 15 14 14 13 12 12 12 11 12 13 12 11 9 8 9 11 12 11 12 12 13 12 11 12 11 11 11 11 11 11 11 10
21 22 23 21 18 20 20 17 15 14 15 17 18 18 18 19 20 20 19 19 18 18 17 17 18 18 18 18 18 18 17 17 17 17 16 16 15 15 15 15 15 15 15 15 15 15 15 15 15 15 14 14 14 14 13 12 11 10 10 9 9 8 9 10 9 8 7 9 10 10 11 11 12 12 11 11 11 11 12 12 12 11 12 11 10
19 22 24 21 17 20 20 18 15 14 14 16 18 17 17 18 19 19 19 19 18 17 17 17 17 17 17 17 17 17 17 16 16 16 15 15 14 14 14 14 14 14 14 14 15 15 15 14 14 14 14 14 13 13 11 10 9 9 8 6 5 4 5 7 7 7 8 9 9 10 11 11 12 12 11 11 11 11 11 12 12 12 12 11 10
19 21 24 22 17 21 20 17 16 14 13 15 17 17 17 17 18 18 18 19 18 17 17 17 17 17 17 17 16 16 16 16 15 14 13 13 13 12 12 13 13 13 13 14 15 15 14 13 13 12 12 13 13 12 10 9 9 9 8 6 3 2 3 4 6 7 8 9 9 10 10 11 11 11 11 11 11 11 11 11 11 11 11 11 10
19 19 24 23 18 21 21 18 16 14 13 13 16 17 16 17 17 17 17 18 18 17 17 16 17 17 17 16 16 16 15 15 14 12 11 11 10 10 10 11 11 11 11 12 13 14 14 12 11 10 12 13 12 10 9 8 9 9 10 9 6 4 4 4 6 7 8 9 10 11 12 12 11 12 11 11 10 11 11 10 10 10 10 11 10
19 17 22 22 18 22 21 18 17 14 13 13 15 16 16 17 16 16 17 18 18 17 16 16 16 16 16 15 15 15 14 13 12 11 10 10 9 9 8 9 9 10 10 10 11 12 13 13 11 9 12 13 10 9 8 8 9 10 10 10 8 7 5 5 7 8 8 9 10 12 13 13 12 11 11 11 11 10 11 10 10 10 10 10 9
18 16 19 19 18 21 21 18 17 14 13 12 14 15 16 16 15 16 16 17 17 17 16 16 16 15 15 14 14 13 12 11 11 11 10 9 8 9 8 8 8 9 11 10 10 11 12 12 11 9 11 10 8 7 6 7 9 9 9 9 9 8 7 6 7 8 9 10 11 11 11 12 11 11 10 11 11 10 10 9 9 9 9 8 7
18 17 18 17 17 20 20 18 16 14 13 12 13 14 15 15 15 16 16 17 17 16 16 16 16 15 14 13 13 12 11 11 10 10 9 8 8 8 8 7 7 8 10 9 9 10 11 10 9 9 8 7 6 5 5 7 8 8 9 9 10 10 8 8 8 9 9 10 10 10 10 10 10 10 9 9 9 10 10 9 7 7 7 6 5
18 18 17 17 16 18 19 18 16 14 14 13 13 14 14 15 15 16 17 17 17 16 16 16 15 14 14 12 12 11 10 10 9 8 7 7 8 8 8 8 7 7 8 8 8 9 11 11 10 9 8 6 5 4 5 6 8 8 8 9 10 10 10 10 9 9 10 10 10 10 10 10 10 10 9 8 8 8 8 8 8 6 5 4 5
17 18 18 17 16 17 18 17 17 15 13 13 12 13 14 15 15 16 17 17 16 16 16 16 15 13 13 12 11 10 9 9 8 7 6 8 9 8 9 9 8 8 8 7 8 9 11 12 11 10 8 6 5 4 4 6 7 7 8 8 10 10 10 10 10 10 9 9 9 9 9 9 11 11 9 8 8 8 8 7 7 5 5 5 6
16 17 17 17 16 17 16 16 16 15 14 13 13 13 14 15 16 17 17 16 15 15 15 15 14 12 12 11 10 9 9 8 6 6 6 8 8 8 8 8 8 8 8 7 8 8 10 11 11 11 9 7 6 4 4 5 6 6 6 7 8 9 10 10 10 9 9 8 8 8 8 8 9 10 8 8 7 7 7 7 5 4 5 5 6
16 17 17 16 16 16 15 14 15 14 14 13 13 14 14 14 15 16 17 16 14 14 15 14 13 12 11 10 9 8 8 6 5 5 6 8 8 7 7 7 8 8 8 8 8 9 11 11 12 11 10 9 7 5 4 5 5 5 6 6 7 8 9 10 10 9 8 8 8 7 7 7 8 8 7 6 6 5 5 5 4 3 3 4 4
16 16 16 17 16 15 15 14 14 14 13 13 13 13 13 14 15 16 18 16 15 15 15 14 12 12 11 10 8 7 7 5 4 6 7 7 7 7 7 7 7 8 8 8 8 9 12 12 12 12 11 10 8 6 4 4 4 5 6 6 6 6 8 9 9 9 8 8 7 7 6 7 8 7 6 6 5 5 4 3 2 2 1 2 3
16 15 15 16 16 14 14 14 14 13 13 13 12 13 12 13 14 15 17 16 15 16 15 13 12 12 11 9 8 6 5 5 4 5 6 5 6 7 7 8 7 8 8 7 7 9 11 12 12 11 11 10 8 6 4 3 4 5 7 6 6 6 6 7 7 7 8 7 6 6 5 6 8 7 6 5 5 4 3 3 2 2 1 1 2
15 15 14 15 15 14 14 14 14 14 13 12 12 12 12 13 14 14 15 16 16 15 15 13 11 11 10 9 8 6 6 5 4 4 4 4 5 6 6 7 7 8 8 8 6 7 9 10 11 11 10 9 8 6 4 4 5 6 7 7 6 5 5 5 5 6 6 6 6 5 4 6 6 5 5 4 4 4 3 3 2 2 1 1 2
14 15 15 15 15 14 14 14 15 14 13 12 11 12 12 12 13 13 14 15 14 14 14 12 10 9 9 9 8 7 6 5 4 3 3 4 4 4 5 6 6 6 8 8 7 5 6 7 8 9 9 7 7 6 5 5 6 7 7 7 6 5 4 4 4 5 4 4 5 4 3 5 5 4 4 3 3 3 3 2 2 2 1 2 2
15 15 15 15 16 15 15 15 15 14 13 12 11 11 11 12 12 12 13 13 12 12 13 11 10 9 9 9 8 6 6 5 4 2 2 3 2 3 3 3 4 4 5 7 7 5 4 5 6 7 7 6 6 6 6 6 7 7 7 6 5 4 3 3 3 3 3 3 4 3 3 5 4 3 3 3 3 3 2 2 2 3 2 2 1
15 16 16 16 17 17 16 15 15 14 13 11 11 11 11 12 11 12 12 13 12 11 12 11 10 9 9 9 7 6 5 4 4 2 2 2 1 1 1 1 2 3 4 5 5 5 4 3 4 5 6 5 5 5 6 6 6 7 7 6 5 4 2 2 2 2 2 2 3 2 2 4 3 4 4 3 4 4 3 3 3 3 2 2 1
16 16 17 17 18 17 16 15 15 14 13 11 11 11 11 12 11 11 13 12 11 10 11 10 10 9 8 7 6 5 5 5 4 2 1 1 1 1 1 1 1 1 3 3 3 3 3 3 4 5 5 5 5 5 6 5 6 7 7 7 5 4 3 2 2 3 2 2 3 2 2 3 4 5 5 4 5 6 5 4 3 3 3 2 1
16 16 17 18 18 17 16 15 14 14 13 11 11 11 11 11 11 11 13 12 11 10 10 10 9 8 7 5 5 5 4 4 5 4 2 1 2 2 2 1 0 0 1 2 2 2 1 2 3 4 5 6 5 5 6 6 6 7 7 6 5 4 4 4 4 4 4 3 4 3 2 3 4 5 5 5 5 4 4 4 3 3 3 3 3
15 14 16 18 18 17 16 15 14 14 13 11 11 11 11 11 11 11 12 12 11 10 10 9 7 7 6 5 5 4 4 4 4 4 2 2 3 3 4 4 3 2 1 1 2 2 2 1 2 3 4 6 6 6 6 6 6 5 5 5 4 3 4 5 5 5 6 5 5 5 4 4 4 5 5 5 4 3 3 3 3 3 2 2 4
15 15 16 17 17 17 17 16 14 14 12 11 11 11 11 10 11 11 11 12 11 9 8 8 7 7 6 5 5 5 5 4 3 3 2 2 2 3 3 4 4 4 3 3 2 2 4 4 3 3 3 5 6 8 7 7 6 5 3 3 2 2 3 4 5 6 7 7 7 7 6 5 5 5 5 5 4 3 4 3 3 4 1 1 3
15 15 15 16 18 17 17 16 14 14 13 12 12 11 11 10 10 10 10 10 10 7 7 8 7 6 6 5 5 5 5 4 3 3 2 2 2 3 3 3 3 3 4 5 4 4 3 5 6 5 4 5 5 7 8 7 6 6 5 4 4 3 4 4 5 6 7 8 8 8 7 6 6 6 6 5 4 3 5 5 4 5 3 3 3
15 16 15 15 18 18 16 16 14 14 14 13 12 11 11 10 10 9 9 9 8 7 7 8 7 6 6 5 5 5 5 3 3 2 1 2 2 3 3 3 2 3 3 4 4 4 4 4 6 7 6 6 5 6 7 7 8 7 7 7 7 6 6 6 6 6 7 9 9 10 9 7 7 7 7 6 7 6 6 6 5 5 5 3 4
15 15 15 15 18 18 15 15 14 14 13 13 11 11 10 10 10 9 8 7 7 7 7 7 7 6 5 5 5 6 5 3 2 0 1 2 3 4 4 4 5 5 4 3 3 4 4 4 5 6 7 7 6 7 7 7 8 9 8 8 8 8 8 8 8 7 8 9 10 11 10 8 8 8 7 7 8 7 6 6 6 5 5 4 4
14 14 15 15 17 17 15 15 14 13 13 12 11 10 9 9 9 8 7 6 6 6 6 6 6 5 5 6 6 5 4 3 2 1 2 3 3 4 5 6 7 7 6 5 4 5 5 5 5 5 6 7 8 9 8 7 8 9 10 9 9 10 10 10 10 9 9 10 10 11 11 10 10 9 9 7 7 7 6 7 7 6 5 5 5
13 14 15 16 17 16 15 15 14 13 13 12 11 10 8 8 8 7 6 5 6 6 5 5 5 4 5 5 5 4 3 2 2 2 3 4 4 5 6 6 7 7 7 7 6 6 6 7 7 6 6 7 8 10 10 9 8 9 10 9 9 10 10 10 11 10 10 10 11 12 12 12 11 11 10 9 8 8 9 8 7 7 6 6 6
13 15 15 16 17 17 16 14 13 12 12 11 10 10 8 7 7 7 6 5 5 5 4 5 4 4 4 4 4 4 3 2 2 2 4 5 5 6 6 6 7 8 8 8 7 6 6 6 6 6 6 7 8 10 11 10 9 9 10 10 10 11 11 11 11 10 10 11 12 13 14 14 13 12 11 11 10 10 11 10 9 8 8 7 7
13 15 15 16 17 17 15 13 13 13 11 10 8 9 8 7 7 7 6 5 4 4 4 4 4 3 3 2 3 4 4 4 3 3 4 5 6 6 6 6 7 8 8 8 8 6 5 5 5 5 6 7 7 8 9 8 8 9 10 11 12 12 12 11 11 11 11 11 12 14 15 15 14 13 12 12 12 12 12 12 12 10 10 9 7
13 15 15 17 17 16 14 13 13 12 10 9 8 8 8 7 7 6 5 4 4 4 4 3 3 2 2 3 4 5 5 5 5 5 5 5 5 6 6 6 7 8 8 9 8 7 6 5 5 5 6 6 7 7 7 8 10 10 11 12 13 12 13 12 12 11 11 12 13 15 16 17 17 15 14 12 12 13 13 14 14 12 12 12 9
13 15 16 16 16 15 13 13 13 12 10 9 8 8 8 7 6 6 5 4 3 4 4 4 3 2 3 3 4 4 4 4 4 4 4 4 5 5 6 7 7 7 8 8 7 5 5 5 4 4 5 5 6 7 7 8 10 11 12 14 12 12 13 13 13 12 12 12 14 16 18 20 19 17 15 14 12 12 13 15 15 14 14 12 9
14 15 16 17 16 15 14 13 12 12 11 10 9 8 8 7 6 6 5 4 4 5 5 5 4 3 2 2 2 2 2 2 2 3 3 3 4 5 7 7 6 6 6 5 5 4 5 5 5 4 4 5 6 7 8 8 9 9 11 13 13 12 12 13 13 14 15 15 15 17 19 21 21 19 17 16 15 13 13 16 16 16 15 12 10
14 15 16 17 16 15 14 13 12 12 12 10 9 8 8 7 6 7 6 5 5 5 6 6 5 4 3 2 2 2 1 1 1 1 1 2 3 5 7 7 6 4 5 6 5 5 6 6 6 5 5 6 6 7 7 7 8 8 9 11 12 12 13 15 16 16 16 14 13 16 17 19 22 22 19 17 17 15 13 15 16 17 16 14 13
15 15 16 16 16 16 15 14 14 13 12 11 9 9 8 7 7 8 7 6 5 6 7 6 5 4 3 3 3 2 2 2 2 2 1 2 3 5 6 7 6 5 6 6 6 7 7 6 6 7 6 7 7 6 6 5 6 7 7 9 10 11 12 14 16 17 17 15 12 12 13 15 18 22 22 19 19 17 16 16 16 16 17 16 16
15 15 16 16 15 16 17 16 15 15 13 12 10 9 8 8 7 7 7 7 6 7 6 5 5 4 3 4 3 3 2 2 2 2 1 1 3 4 5 6 6 6 7 7 6 7 8 6 5 6 6 6 5 4 3 3 5 7 8 8 9 9 9 11 12 14 16 16 14 11 11 12 15 19 22 22 21 18 18 19 17 16 16 17 17
14 15 16 16 16 16 18 18 16 15 13 11 9 8 7 7 7 6 7 7 6 6 5 5 4 3 3 3 2 1 1 1 1 2 2 1 3 4 5 5 5 6 6 7 8 7 7 6 5 5 5 5 5 3 3 4 6 7 8 8 9 10 10 11 12 12 13 14 13 12 14 15 15 15 18 22 22 18 17 21 19 16 17 16 16
14 15 16 16 16 16 17 18 16 14 11 9 8 7 6 7 7 7 8 7 6 5 5 5 3 2 2 1 1 1 0 1 1 1 1 2 2 3 5 5 5 5 5 6 8 7 7 7 6 6 6 6 5 4 4 5 5 6 7 8 9 9 8 9 12 12 12 12 12 15 19 19 18 16 15 17 20 18 18 20 21 18 17 17 16
14 15 15 17 17 15 16 17 16 13 9 8 7 7 7 9 10 10 9 8 7 5 5 4 3 2 2 1 1 1 1 1 1 1 1 1 2 3 4 5 6 6 6 6 6 6 6 6 6 6 6 7 6 5 6 6 5 6 6 5 6 6 5 6 9 11 12 12 12 14 17 19 19 19 16 15 17 17 17 18 20 21 18 17 16
13 14 15 16 16 15 17 17 14 10 9 9 9 10 12 13 12 11 9 8 6 5 5 4 3 3 2 2 1 1 2 2 2 1 0 1 2 3 3 5 6 7 7 8 7 7 6 6 6 6 7 7 6 6 7 6 6 6 5 4 4 4 5 4 5 9 11 11 12 13 14 15 17 18 18 19 19 18 18 18 22 24 20 18 18
12 14 14 14 14 15 16 15 13 12 12 12 13 13 13 12 11 11 9 7 6 5 5 5 5 4 4 3 2 2 2 2 2 1 1 1 2 3 3 4 5 6 7 9 9 9 8 7 7 7 8 8 8 7 7 8 8 8 7 6 5 4 4 5 7 8 7 8 10 12 13 14 16 17 19 22 23 20 17 20 24 25 22 21 19
12 12 12 12 13 14 15 14 15 16 15 13 13 13 12 13 12 10 8 7 6 5 5 5 5 5 4 3 3 2 2 1 1 0 1 2 3 3 4 5 5 6 6 8 9 10 10 9 8 9 9 9 9 10 11 11 11 12 12 10 9 8 7 7 7 5 6 8 9 9 11 13 14 16 19 20 21 20 18 21 25 26 25 25 23
11 11 11 12 13 14 15 15 16 16 14 14 13 13 14 13 9 7 6 6 6 5 4 5 5 4 4 4 4 3 2 2 1 1 2 3 4 4 5 5 6 7 6 7 8 9 9 9 9 9 10 10 11 12 13 12 12 12 13 14 15 15 13 10 8 7 8 8 8 9 11 12 12 15 18 19 19 19 20 22 24 27 28 29 28
12 12 13 14 14 15 15 15 15 15 14 14 13 12 12 11 8 7 7 6 7 7 6 6 6 6 6 6 6 6 5 4 3 3 3 3 4 5 6 7 8 9 8 7 7 7 8 8 9 9 10 11 12 12 12 11 12 12 13 15 17 17 16 15 14 11 8 7 8 10 11 12 14 15 16 18 20 20 21 22 22 25 28 31 31
13 13 14 14 16 17 16 16 16 16 15 14 13 11 10 9 9 9 9 9 10 10 9 9 8 7 6 6 5 5 4 4 3 4 5 5 5 5 6 9 10 10 9 7 7 7 7 8 9 10 11 11 12 13 13 13 13 14 14 14 15 16 15 15 17 16 12 9 9 10 10 10 13 16 17 19 21 22 24 25 24 24 28 32 33
15 15 15 17 19 20 19 19 18 17 16 14 13 12 10 10 11 11 11 12 11 10 9 7 6 5 4 4 4 4 4 4 5 5 6 7 8 8 7 8 10 9 8 7 7 8 8 9 10 11 12 12 12 13 14 15 15 16 15 13 13 14 12 11 13 15 13 11 10 11 11 10 11 14 17 18 20 21 22 25 26 25 28 33 35
20 20 20 22 22 21 21 21 19 17 16 15 14 13 11 11 11 11 11 10 9 7 6 5 5 4 4 5 5 5 6 6 5 6 6 7 8 8 8 8 9 9 8 8 9 9 9 10 11 12 13 13 14 14 15 16 16 16 15 14 14 13 12 10 10 10 9 9 9 10 12 14 15 16 15 16 19 20 20 24 27 27 29 33 36
Wind_Direction
164 164 168 168 162 160 162 163 158 151 148 148 147 144 143 143 143 142 141 140 139 135 133 130 128 126 125 125 124 124 124 122 122 120 118 117 116 116 115 114 113 111 109 108 107 105 103 102 101 101 100 101 100 99 98 96 94 92 90 88 86 86 88 89 91 91 90 88 87 83 78 76 78 81 88 97 103 106 101 96 86 76 76 73 74
159 163 167 166 163 161 164 165 159 152 148 146 146 143 140 138 138 138 138 137 135 133 132 130 128 127 126 126 125 125 124 123 122 119 118 116 116 115 115 113 112 112 111 110 108 107 105 105 103 102 103 103 103 102 101 98 96 94 91 87 85 86 88 90 91 91 92 92 89 82 76 73 76 76 75 81 90 99 101 100 94 86 81 74 72
153 162 165 165 164 163 167 167 159 152 148 145 142 139 137 136 136 136 136 134 133 132 131 130 129 129 128 128 126 126 124 123 122 120 118 117 116 115 115 113 112 112 112 111 110 109 107 106 104 105 105 105 104 103 102 100 98 94 89 83 81 84 86 89 93 95 97 98 93 83 76 73 73 73 70 72 77 85 88 91 96 92 83 75 74
152 160 163 165 164 165 169 167 158 151 148 145 140 137 136 135 135 136 135 133 132 132 131 131 131 130 130 129 127 127 125 123 122 121 119 117 117 115 113 113 113 111 111 111 110 109 108 107 105 106 107 107 106 104 102 100 97 92 86 81 79 80 81 84 91 96 99 101 93 83 78 76 71 70 73 74 75 78 80 82 87 88 83 79 78
152 157 162 162 163 167 170 166 156 151 148 145 140 136 137 137 137 136 134 132 131 131 132 132 132 131 131 130 129 127 124 123 122 121 120 118 118 116 112 110 110 111 112 111 109 107 108 108 108 108 109 109 108 105 103 101 97 90 82 77 76 77 76 78 85 91 94 93 86 80 78 81 77 74 77 77 79 78 78 81 80 78 78 78 77
153 156 160 159 163 169 169 164 154 151 149 145 141 138 139 140 140 138 135 132 130 130 131 133 132 132 132 131 129 127 124 124 123 123 122 120 121 117 111 109 110 111 113 112 110 108 108 109 110 111 110 110 109 107 106 102 96 87 77 68 65 69 71 71 75 81 88 86 81 79 77 83 84 81 80 77 80 76 74 80 82 81 79 75 71
154 157 159 159 164 169 168 162 154 151 151 148 143 141 142 141 141 138 135 132 130 131 131 132 132 133 133 132 130 127 125 125 124 123 123 122 122 119 113 110 110 109 113 114 111 109 108 111 113 115 112 110 112 112 109 102 93 80 66 54 50 57 66 69 71 72 84 88 83 81 81 86 87 85 83 81 81 74 70 77 81 81 82 80 76
155 159 161 162 165 169 168 161 154 151 152 153 148 144 143 141 140 136 134 132 130 131 132 132 133 135 134 133 131 128 126 125 124 123 123 123 120 119 119 118 116 113 114 115 116 113 111 114 116 116 113 114 117 115 110 100 87 68 52 43 38 50 65 71 73 70 82 90 88 88 87 89 90 89 88 86 84 78 74 74 76 76 76 78 80
157 160 164 164 165 169 167 162 156 152 153 157 154 147 145 142 138 136 135 134 132 131 133 133 134 135 135 133 129 127 126 124 122 120 121 122 118 120 124 124 123 120 120 121 121 117 117 120 119 119 116 120 122 115 106 93 75 59 56 64 74 78 81 79 75 77 86 90 90 94 95 94 93 93 92 88 85 83 80 76 75 72 70 73 78
158 160 167 166 164 167 167 162 158 155 154 159 159 150 145 143 138 137 136 134 133 132 132 134 134 134 134 132 128 128 126 124 122 120 120 118 116 117 118 118 119 120 125 126 123 119 122 125 124 126 123 125 127 115 102 85 66 62 70 77 83 92 98 85 78 86 93 92 93 99 102 100 96 95 95 91 85 80 79 80 84 80 76 77 78
158 160 166 165 163 167 167 163 160 157 154 159 159 150 144 142 140 138 136 134 133 133 134 135 135 134 133 130 128 128 127 125 122 117 112 110 111 110 104 102 105 111 119 125 126 125 131 132 131 133 130 130 130 119 101 81 66 70 79 79 82 91 92 83 85 94 95 94 98 102 103 99 96 99 98 93 92 88 83 76 79 83 82 82 82
160 160 165 163 163 168 167 163 161 159 154 157 157 150 143 141 141 138 136 134 134 136 137 136 135 134 132 131 129 127 124 119 112 104 98 95 99 101 100 99 101 110 118 129 135 137 140 140 135 130 131 135 134 122 99 78 69 75 87 85 83 87 82 79 93 101 99 99 101 103 102 96 97 104 99 94 96 97 99 90 80 81 79 81 82
160 160 164 159 161 166 165 163 160 160 155 153 155 149 142 141 142 139 137 137 137 138 138 136 135 135 134 132 130 126 119 112 106 102 97 94 96 98 99 100 106 116 126 135 140 144 148 145 135 130 137 140 134 120 92 74 71 83 95 87 82 80 75 82 101 107 105 102 100 102 103 99 99 104 98 93 96 94 97 100 94 87 81 77 61
160 160 160 157 162 164 163 163 161 162 155 151 153 148 142 141 142 140 139 139 139 141 140 138 137 139 137 134 132 128 119 114 111 103 96 93 95 95 90 86 91 102 116 127 132 141 150 152 145 144 148 143 134 113 85 68 69 89 99 90 83 77 76 89 105 112 110 103 98 99 99 103 108 106 99 94 98 96 92 92 89 85 83 68 48
162 159 157 156 159 160 162 163 163 162 154 149 149 146 141 139 141 142 141 141 140 142 144 142 140 139 138 137 133 128 122 119 113 98 84 85 90 90 85 81 84 90 98 113 127 140 152 157 155 150 148 143 138 112 80 62 66 87 101 95 86 79 82 97 111 116 114 105 100 99 96 107 115 108 100 96 99 102 98 90 82 76 75 63 52
162 160 157 156 156 157 159 161 163 160 154 149 146 142 139 140 141 143 143 142 142 143 146 144 140 139 140 138 134 130 127 122 106 86 74 81 91 92 88 84 83 86 91 104 121 138 151 156 152 147 144 143 138 118 80 58 62 81 102 101 90 83 83 99 115 119 118 110 105 103 98 107 114 111 106 102 102 106 104 98 95 85 76 62 55
160 160 158 157 156 155 154 157 159 155 152 147 141 141 142 144 144 145 144 143 143 143 146 144 142 144 144 142 139 135 130 120 98 81 69 72 84 89 89 87 85 81 83 94 109 128 142 145 144 143 144 143 137 119 84 61 61 82 108 109 95 85 81 94 111 118 121 115 111 107 106 114 115 115 116 113 114 118 115 113 113 103 82 62 62
160 160 159 158 155 154 154 155 155 149 147 142 139 144 148 148 148 149 145 145 147 146 148 147 148 148 145 143 142 139 130 118 102 87 69 63 71 77 79 80 85 81 79 89 105 125 137 141 141 143 144 143 137 121 93 70 74 99 118 121 104 89 81 90 106 117 119 117 114 108 116 129 124 123 128 131 130 127 127 131 136 124 104 71 76
162 160 158 158 155 154 155 156 156 150 147 144 143 145 147 148 147 146 145 149 152 152 151 147 150 149 145 147 145 142 130 119 110 84 65 59 61 67 71 71 74 74 74 83 103 127 137 141 143 146 145 141 135 122 103 83 96 119 126 129 119 96 84 92 111 119 118 122 120 115 133 142 138 140 143 144 142 138 141 144 146 141 139 121 112
164 160 157 159 159 158 156 157 159 156 152 147 146 145 147 147 146 144 145 150 153 157 155 149 150 151 153 155 148 140 130 125 116 87 68 64 61 64 68 68 67 66 67 69 86 123 137 143 148 149 148 142 131 121 108 95 108 124 130 133 127 108 97 105 119 122 125 129 124 128 147 144 144 148 144 147 149 148 152 146 144 136 116 142 158
164 161 159 161 163 163 160 160 160 159 152 147 146 147 151 151 147 144 146 150 150 158 161 155 150 155 163 161 156 146 137 132 124 111 80 64 61 64 67 74 73 69 70 69 74 105 136 150 155 153 153 147 132 122 111 99 108 121 132 136 134 128 114 110 115 123 136 137 132 145 147 140 145 150 158 161 163 172 165 149 141 136 120 128 152
162 163 164 165 166 167 166 161 157 157 153 149 148 149 154 153 147 143 147 149 147 153 162 160 153 158 167 164 161 156 151 149 141 145 108 85 71 56 58 80 85 82 81 80 82 96 132 161 164 160 161 155 138 130 119 104 108 120 130 138 149 156 133 113 117 131 149 151 157 165 135 139 152 170 194 184 185 212 187 157 158 157 162 146 152
163 164 165 169 170 169 170 164 156 157 156 152 150 151 156 153 149 150 151 151 150 155 160 164 162 160 166 169 170 169 169 168 156 139 112 122 140 94 65 63 99 119 110 97 94 98 122 162 176 175 173 167 149 141 133 117 117 126 136 147 167 176 160 141 140 163 181 172 182 191 140 146 172 200 215 201 198 216 202 187 183 170 170 162 159
165 166 167 173 175 171 171 167 160 158 159 157 154 153 156 154 151 156 156 155 157 161 167 172 172 169 168 172 179 182 173 158 151 144 154 168 161 137 146 232 206 143 128 117 110 107 120 149 179 191 187 181 165 152 149 138 129 133 143 152 167 176 179 197 199 205 223 229 214 227 183 167 201 217 214 208 211 220 206 192 184 168 170 178 162
164 168 171 176 180 177 171 165 163 162 163 162 158 156 155 153 152 156 159 161 163 166 174 178 177 178 175 169 173 180 169 154 158 161 160 113 73 61 57 17 249 267 145 154 153 134 136 152 173 196 198 193 183 169 161 158 146 138 141 146 159 173 190 215 222 225 235 249 249 256 240 204 223 227 216 210 219 230 201 187 187 186 192 196 168
165 170 174 179 183 182 173 165 165 167 167 163 159 158 156 154 153 154 156 161 167 172 176 177 176 179 181 180 176 173 170 163 162 156 121 86 68 55 47 38 39 13 345 251 224 209 218 211 193 205 213 207 195 190 181 176 173 158 147 144 152 172 199 221 233 237 238 245 256 264 255 235 237 228 214 208 219 228 201 200 207 209 229 207 165
166 170 173 180 185 184 176 167 168 170 169 165 159 159 159 157 157 156 157 160 166 173 175 176 174 176 179 182 179 170 170 173 160 138 110 83 58 48 45 37 35 21 11 358 306 255 242 240 237 231 233 230 213 203 197 196 199 198 192 177 178 196 216 230 243 247 243 246 253 260 257 244 239 219 195 199 220 225 211 230 228 217 214 141 166
165 169 170 176 185 186 178 170 170 172 170 166 161 160 161 160 161 160 162 163 165 168 168 168 166 169 169 168 171 169 171 171 143 123 98 73 52 40 39 34 27 5 5 7 356 335 287 259 249 244 240 243 236 218 207 213 219 225 244 262 263 259 262 258 260 259 250 249 249 256 258 246 238 212 188 201 231 235 226 241 236 217 192 118 154
168 171 172 174 184 187 177 171 174 173 171 168 164 165 163 160 163 165 166 166 165 166 163 160 160 164 166 164 166 169 173 161 131 122 74 48 35 31 32 21 10 354 349 350 347 345 331 299 271 256 250 246 247 238 221 222 230 237 250 268 280 280 282 279 279 273 257 251 245 249 256 250 237 212 192 205 226 234 234 242 236 213 201 157 154
170 171 176 173 181 186 177 174 178 175 172 169 168 167 167 166 166 167 167 165 164 165 164 160 160 167 171 171 171 176 181 181 181 217 358 7 3 7 0 349 349 348 340 333 324 315 311 311 296 274 264 256 250 248 240 234 235 242 250 264 279 284 286 284 284 278 262 253 243 244 251 249 237 219 208 206 216 230 230 230 231 216 208 194 176
170 170 178 177 182 188 179 177 181 177 173 170 169 166 167 171 170 166 165 165 165 165 168 166 163 168 177 183 184 188 196 219 251 281 330 333 336 335 333 335 337 338 332 321 308 299 291 291 294 291 284 270 259 254 250 244 239 244 252 260 272 281 285 286 286 281 269 257 244 241 245 246 238 226 220 209 208 222 222 221 224 217 217 208 194
172 172 179 183 186 188 182 180 180 176 174 171 169 169 166 169 170 163 160 162 164 168 171 169 166 170 180 193 200 212 232 257 272 300 324 326 325 325 327 332 333 332 326 314 302 294 287 285 284 285 284 277 270 263 258 254 247 245 253 260 269 278 281 284 285 282 275 263 248 239 237 242 241 232 227 217 213 220 220 223 226 222 224 214 202
175 175 179 183 185 187 183 181 179 176 177 174 171 173 168 167 168 162 159 159 159 168 172 171 172 174 184 203 220 246 267 276 282 305 320 321 320 326 329 332 333 328 320 313 304 293 284 284 285 280 276 273 269 266 264 262 256 254 262 268 274 277 276 277 281 280 276 269 256 242 234 237 237 233 232 227 223 221 216 217 225 229 227 218 213
174 175 178 180 182 184 182 180 181 180 179 176 172 170 167 166 164 158 161 162 160 166 169 170 173 177 199 233 257 279 290 294 297 302 312 316 319 327 332 331 326 318 312 309 304 300 293 288 287 281 274 268 266 270 272 270 267 268 270 272 275 280 280 276 277 277 274 272 262 245 234 233 232 229 229 232 230 223 213 209 216 223 224 221 220
174 175 177 178 178 177 177 176 178 179 176 173 167 162 161 161 159 159 161 162 165 169 169 170 172 190 233 254 271 286 296 302 305 306 308 314 322 330 336 331 318 307 303 301 301 301 297 294 291 285 279 272 270 272 275 276 275 274 273 273 275 281 282 277 272 272 271 270 264 250 236 232 232 229 227 229 230 228 219 211 214 219 222 224 220
174 172 172 174 173 171 173 173 172 173 169 168 164 157 156 157 160 160 153 147 156 167 176 179 184 216 244 256 266 278 289 297 300 304 311 322 337 342 343 335 322 308 298 296 300 303 302 300 295 291 289 282 279 275 272 278 278 273 271 272 275 278 279 278 273 271 270 267 264 253 241 235 233 233 233 229 225 229 227 217 216 222 227 228 215
174 170 169 171 170 169 171 171 169 168 166 165 159 153 154 157 160 155 141 139 156 166 174 177 185 208 220 230 243 252 262 278 288 301 317 334 337 334 337 334 325 313 302 297 298 300 300 304 303 299 301 294 289 285 280 280 279 273 269 268 272 275 274 275 272 270 269 266 263 256 245 238 235 234 235 236 231 229 231 224 219 223 229 229 218
173 170 169 170 168 168 171 170 169 168 167 163 155 151 153 154 152 145 138 139 152 161 163 165 169 179 182 190 206 215 226 248 262 275 306 326 321 317 326 329 323 316 307 299 301 306 304 310 313 308 313 311 298 292 288 287 283 276 270 268 268 269 269 269 265 262 263 262 261 256 247 240 237 235 235 239 238 231 230 229 224 225 229 230 228
172 171 168 168 167 168 171 170 171 172 168 162 154 151 154 152 146 141 139 138 137 142 146 151 156 162 171 176 181 191 197 220 241 244 255 317 316 311 318 324 327 324 315 310 315 321 320 317 316 317 320 311 297 291 288 284 284 278 272 274 272 267 266 265 260 256 257 256 252 248 245 243 239 236 237 239 242 238 233 232 227 226 230 234 233
171 171 168 168 167 167 170 170 172 172 165 159 151 146 147 146 145 140 139 138 131 129 132 142 150 154 165 166 169 184 200 238 274 297 348 337 313 312 321 333 338 327 319 322 319 314 316 312 306 316 318 308 301 297 293 289 295 292 282 277 275 270 263 260 258 255 254 251 247 240 240 244 241 238 239 240 241 240 238 234 230 227 229 235 235
168 171 169 169 167 165 167 166 169 170 164 158 151 148 149 146 144 139 136 136 136 139 144 150 150 150 153 152 159 176 208 244 291 327 350 330 311 321 330 335 334 320 309 313 313 306 309 314 308 302 302 305 304 303 305 300 296 296 292 288 288 282 269 260 256 252 250 247 242 241 244 245 240 237 238 240 240 239 240 237 232 229 227 229 233
168 170 168 168 169 166 166 165 167 170 166 160 157 155 153 145 140 137 137 136 140 149 151 150 144 142 133 123 134 124 230 229 234 302 330 330 331 333 325 319 317 314 303 298 303 299 297 305 305 299 297 291 286 290 294 283 281 293 300 300 299 291 268 256 255 251 249 247 240 242 247 247 241 237 235 238 239 238 241 240 233 231 227 223 225
166 168 166 166 168 167 169 170 167 169 168 163 159 152 142 137 132 129 130 128 128 133 134 140 147 148 147 145 146 145 199 208 195 222 333 340 335 330 320 311 302 307 312 301 298 295 289 287 284 289 291 280 271 275 279 276 280 291 289 285 301 307 282 259 255 250 248 248 244 244 247 248 244 242 238 237 239 238 239 240 235 233 230 224 220
164 167 166 166 167 168 173 173 168 166 161 151 145 139 132 128 123 119 121 121 123 131 132 137 143 147 152 151 158 181 197 203 187 193 277 313 313 314 314 310 302 304 310 303 300 298 291 284 281 280 278 274 271 269 266 264 271 274 268 267 287 297 288 290 288 269 255 247 245 246 247 249 247 244 240 240 242 240 237 238 237 234 233 230 223
163 164 165 166 165 166 168 165 157 150 144 141 138 135 132 129 126 123 126 127 126 132 132 122 119 124 129 139 158 175 176 181 172 193 269 301 314 320 320 315 309 307 303 298 298 299 297 294 287 280 271 270 273 273 265 256 255 251 250 267 280 273 280 307 308 287 258 242 243 246 247 248 249 247 245 245 245 242 235 235 238 235 233 234 229
160 160 159 159 155 153 152 147 142 140 139 139 136 136 137 136 133 133 137 139 134 133 127 117 114 115 116 127 145 153 151 150 134 41 351 345 337 329 322 320 319 316 309 303 301 299 298 294 282 276 273 272 272 274 272 263 256 249 243 252 266 270 281 298 303 294 267 253 244 245 250 248 247 247 247 246 244 242 236 235 240 237 233 234 233
158 154 145 143 141 139 140 139 137 137 134 133 134 137 139 136 137 147 154 152 142 131 120 117 115 113 113 116 118 112 98 81 67 40 14 358 343 333 328 327 324 321 316 309 304 300 295 289 282 277 275 275 271 269 272 270 264 255 247 250 257 262 267 271 275 286 289 275 251 247 251 248 247 245 244 245 243 242 241 238 240 238 234 235 234
151 144 134 132 133 133 135 135 133 132 129 130 135 139 140 139 146 148 140 135 131 127 125 124 120 115 112 107 102 96 85 69 58 35 12 0 340 328 329 327 323 319 313 304 301 302 298 292 289 284 279 277 273 269 270 271 267 263 260 260 261 262 261 255 253 260 277 286 272 263 257 250 250 248 243 244 243 242 241 238 237 234 232 233 233
136 132 128 127 130 132 133 131 128 128 129 133 134 134 135 135 137 133 126 125 127 127 127 122 117 111 105 98 90 80 65 49 29 5 348 342 336 328 323 316 313 311 303 293 290 293 296 297 294 290 286 281 278 275 272 270 269 271 274 270 268 269 265 256 250 247 252 269 278 279 271 252 246 248 245 244 244 242 240 238 236 233 231 233 233
123 123 124 127 131 132 132 130 127 128 131 131 128 124 123 125 128 129 129 129 129 126 121 113 104 92 74 56 37 19 8 355 342 334 326 322 322 324 321 311 307 306 299 291 289 290 291 293 294 293 291 288 284 280 276 275 273 274 275 272 272 274 271 262 253 246 246 251 261 274 276 263 254 253 245 240 242 240 239 237 235 235 235 235 233
125 127 129 130 131 130 128 124 123 125 124 122 119 117 117 119 122 124 123 123 120 114 104 89 69 51 38 24 10 357 345 334 327 325 321 315 313 315 318 314 310 308 303 298 295 295 293 289 290 291 293 292 288 283 278 276 275 274 273 271 271 272 270 271 269 262 254 248 254 267 272 272 274 270 256 243 243 244 240 237 234 232 235 235 233